Puerto Banus, Marbella

>

This is an optional block (switch it off / on) in the settings - file ($SITE['banners'] = false;)

You can display ads, any other important text or photo’s using text / html or PHP code.

You can place one or more at the top and or bottom and it can all be different for content / size .



Meteosat more information blitzortung!


Radar lluvias  rain snow radar


Visita nuestra red de sitios de meteo:

Documentation for the template used

MeteoibericaRed estaciones Meteorologicas

MeteoclimaticRed estaciones Meteorologicas



Viento Desde: 19-04-2018 23:00 Hasta: 21-04-2018 04:59 Advertencias para: Viento Nivel: Amarillo info button

Pagina Historial Weather Underground texto

Diario Resumen January 3, 2018 Unidades:  Métrico    impérial   Tanto
« Anterior Dia
Siguiente Dia »
Diario Semana Mensual Anual Personalizada
  Maxima: Minima: Media:
Temperatura: -17.8 °C -10.6 °C -9.2 °C
Punto de rocío: -17.8 °C -12.9 °C -11.4 °C
Humedad: Humidity % 64 % 77 %
Velocidad del Viento: 0 km/h 0 km/h 7.1 km/h
Ráfagas de viento: 0 km/h - -
Viento:- - WSW
Pression baro: 0 hPa 34808.1 hPa -
Précipitaciones: 0 mm    
Historical Graphs
 
 
Datos de tabla para January 3, 2018
Tiempo Temperatura Punto de rocío Pression baro Viento Velocidad del Viento Ráfagas de viento Humedad Las precipitaciones Rate ( Hora )
-17.8 °C -17.8 °C 0 hPa Calm     Humidity % 0 mm
00:01 -8.8 °C -12.7 °C 34889.3 hPa North 9 km/h 9 km/h 64 % 0 mm
00:02 -8.8 °C -12.7 °C 34889.3 hPa North 9 km/h 9 km/h 64 % 0 mm
00:06 -8.8 °C -12.6 °C 34889.3 hPa Calm     64 % 0 mm
00:08 -8.8 °C -12.6 °C 34889.3 hPa North 7.7 km/h 7.7 km/h 64 % 0 mm
00:10 -8.8 °C -12.6 °C 34889.3 hPa North 9 km/h 9 km/h 64 % 0 mm
00:13 -8.8 °C -12.6 °C 34889.3 hPa NNW 9 km/h 9 km/h 64 % 0 mm
00:18 -8.7 °C -12.6 °C 34889.3 hPa Calm     64 % 0 mm
00:19 -8.7 °C -12.6 °C 34889.3 hPa Calm     64 % 0 mm
00:20 -8.7 °C -12.6 °C 34889.3 hPa Calm     64 % 0 mm
00:24 -8.9 °C -12.7 °C 34889.3 hPa NNW 12.9 km/h 12.9 km/h 64 % 0 mm
00:29 -9.3 °C -12.8 °C 34889.3 hPa North 10.3 km/h 10.3 km/h 66 % 0 mm
00:31 -9.3 °C -12.8 °C 34889.3 hPa North 9 km/h 9 km/h 66 % 0 mm
00:32 -9.3 °C -12.9 °C 34889.3 hPa NNW 9 km/h 9 km/h 66 % 0 mm
00:36 -9.4 °C -12.9 °C 34889.3 hPa North 10.3 km/h 10.3 km/h 66 % 0 mm
00:41 -9.4 °C -12.8 °C 34889.3 hPa NNW 12.9 km/h 12.9 km/h 67 % 0 mm
00:46 -9.5 °C -12.9 °C 34875.8 hPa North 9 km/h 9 km/h 67 % 0 mm
00:47 -9.5 °C -12.8 °C 34875.8 hPa North 9 km/h 9 km/h 67 % 0 mm
00:52 -9.4 °C -12.8 °C 34889.3 hPa North 15 km/h 15 km/h 67 % 0 mm
00:53 -9.4 °C -12.8 °C 34889.3 hPa North 15 km/h 15 km/h 67 % 0 mm
00:55 -9.5 °C -12.8 °C 34875.8 hPa North 15.6 km/h 15.6 km/h 67 % 0 mm
00:58 -9.6 °C -12.9 °C 34875.8 hPa North 11.9 km/h 11.9 km/h 67 % 0 mm
01:03 -9.6 °C -12.8 °C 34875.8 hPa North 18.2 km/h 18.2 km/h 68 % 0 mm
01:05 -9.6 °C -12.8 °C 34875.8 hPa North 15 km/h 15 km/h 68 % 0 mm
01:08 -9.6 °C -12.9 °C 34875.8 hPa North 20.8 km/h 20.8 km/h 68 % 0 mm
01:13 -9.7 °C -12.9 °C 34875.8 hPa North 9 km/h 9 km/h 68 % 0 mm
01:17 -9.7 °C -12.8 °C 34875.8 hPa Calm     69 % 0 mm
01:19 -9.8 °C -12.9 °C 34875.8 hPa Calm     69 % 0 mm
01:22 -9.8 °C -12.9 °C 34875.8 hPa NNE 9 km/h 9 km/h 69 % 0 mm
01:27 -9.9 °C -12.9 °C 34875.8 hPa North 11.9 km/h 11.9 km/h 70 % 0 mm
01:32 -9.9 °C -12.8 °C 34875.8 hPa Calm     71 % 0 mm
01:35 -9.9 °C -12.7 °C 34875.8 hPa Calm     71 % 0 mm
01:36 -9.9 °C -12.7 °C 34875.8 hPa Calm     71 % 0 mm
01:40 -9.8 °C -12.7 °C 34875.8 hPa Calm     71 % 0 mm
01:41 -9.8 °C -12.7 °C 34875.8 hPa Calm     71 % 0 mm
01:46 -9.4 °C -12.4 °C 34875.8 hPa Calm     70 % 0 mm
01:48 -9.4 °C -12.4 °C 34875.8 hPa Calm     70 % 0 mm
01:50 -9.3 °C -12.5 °C 34875.8 hPa Calm     69 % 0 mm
01:53 -9.3 °C -12.5 °C 34875.8 hPa Calm     69 % 0 mm
01:57 -9.4 °C -12.7 °C 34875.8 hPa Calm     68 % 0 mm
01:58 -9.4 °C -12.7 °C 34875.8 hPa NNW 7.7 km/h 7.7 km/h 68 % 0 mm
02:03 -9.4 °C -12.6 °C 34875.8 hPa NW 12.9 km/h 12.9 km/h 69 % 0 mm
02:05 -9.4 °C -12.6 °C 34875.8 hPa NW 11.9 km/h 11.9 km/h 69 % 0 mm
02:11 -9.3 °C -12.4 °C 34875.8 hPa NNW 10.3 km/h 10.3 km/h 69 % 0 mm
02:14 -9.1 °C -12.4 °C 34875.8 hPa NW 9 km/h 9 km/h 68 % 0 mm
02:16 -9 °C -12.3 °C 34875.8 hPa NW 9 km/h 9 km/h 68 % 0 mm
02:21 -8.8 °C -12.3 °C 34875.8 hPa NNW 6 km/h 6 km/h 67 % 0 mm
02:22 -8.8 °C -12.3 °C 34875.8 hPa NNW 3.1 km/h   67 % 0 mm
02:23 -8.8 °C -12.3 °C 34875.8 hPa Calm     67 % 0 mm
02:28 -8.8 °C -12.2 °C 34865.6 hPa NW 9 km/h 9 km/h 67 % 0 mm
02:31 -8.8 °C -12.1 °C 34865.6 hPa West 9 km/h 9 km/h 68 % 0 mm
02:34 -8.9 °C -12.1 °C 34865.6 hPa West 10.3 km/h 10.3 km/h 69 % 0 mm
02:39 -9 °C -12.2 °C 34865.6 hPa West 9 km/h 9 km/h 69 % 0 mm
02:40 -9 °C -12.2 °C 34865.6 hPa West 7.7 km/h 7.7 km/h 69 % 0 mm
02:45 -9.1 °C -12.1 °C 34865.6 hPa WNW 10.3 km/h 10.3 km/h 70 % 0 mm
02:46 -9.1 °C -12.1 °C 34875.8 hPa WNW 9 km/h 9 km/h 70 % 0 mm
02:47 -9.1 °C -12.2 °C 34865.6 hPa West 9 km/h 9 km/h 70 % 0 mm
02:52 -9.2 °C -12.1 °C 34865.6 hPa West 6 km/h 6 km/h 71 % 0 mm
02:54 -9.2 °C -12.1 °C 34865.6 hPa West 7.7 km/h 7.7 km/h 71 % 0 mm
02:59 -9.2 °C -12.1 °C 34865.6 hPa West 9 km/h 9 km/h 71 % 0 mm
03:04 -9.2 °C -12.1 °C 34865.6 hPa West 9 km/h 9 km/h 71 % 0 mm
03:05 -9.2 °C -12.1 °C 34865.6 hPa West 9 km/h 9 km/h 71 % 0 mm
03:10 -9.2 °C -12.1 °C 34865.6 hPa West 10.3 km/h 10.3 km/h 71 % 0 mm
03:11 -9.2 °C -12.1 °C 34865.6 hPa West 10.3 km/h 10.3 km/h 71 % 0 mm
03:12 -9.2 °C -12.1 °C 34865.6 hPa West 9 km/h 9.8 km/h 71 % 0 mm
03:17 -9.2 °C -12.1 °C 34865.6 hPa West 9 km/h 9 km/h 71 % 0 mm
03:22 -9.2 °C -12.1 °C 34865.6 hPa Calm     71 % 0 mm
03:23 -9.2 °C -12.1 °C 34865.6 hPa West 3.1 km/h   71 % 0 mm
03:28 -9.3 °C -12.3 °C 34865.6 hPa WNW 9 km/h 9 km/h 70 % 0 mm
03:33 -9.3 °C -12.2 °C 34865.6 hPa ENE 11.9 km/h 11.9 km/h 71 % 0 mm
03:39 -9.6 °C -12.2 °C 34865.6 hPa Calm     73 % 0 mm
03:44 -9.7 °C -12.2 °C 34865.6 hPa Calm     74 % 0 mm
03:46 -9.7 °C -12.3 °C 34865.6 hPa Calm     74 % 0 mm
03:51 -9.7 °C -12.3 °C 34865.6 hPa Calm     74 % 0 mm
03:53 -9.8 °C -12.3 °C 34865.6 hPa Calm     74 % 0 mm
03:54 -9.8 °C -12.3 °C 34865.6 hPa NW 7.7 km/h 7.7 km/h 74 % 0 mm
03:59 -9.8 °C -12.4 °C 34865.6 hPa North 10.3 km/h 10.3 km/h 73 % 0 mm
04:04 -9.9 °C -12.4 °C 34865.6 hPa NNW 9 km/h 9 km/h 74 % 0 mm
04:06 -9.9 °C -12.4 °C 34865.6 hPa North 6 km/h 6 km/h 74 % 0 mm
04:07 -9.9 °C -12.4 °C 34865.6 hPa North 6 km/h 6 km/h 74 % 0 mm
04:12 -9.9 °C -12.5 °C 34865.6 hPa Calm     74 % 0 mm
04:15 -10.1 °C -12.6 °C 34865.6 hPa North 6 km/h 6 km/h 74 % 0 mm
04:16 -10.1 °C -12.6 °C 34865.6 hPa North 3.1 km/h 3.1 km/h 74 % 0 mm
04:21 -10.1 °C -12.5 °C 34865.6 hPa Calm     75 % 0 mm
04:26 -9.9 °C -12.3 °C 34865.6 hPa North 6 km/h 6 km/h 76 % 0 mm
04:31 -9.9 °C -12.2 °C 34865.6 hPa Calm     76 % 0 mm
04:35 -9.8 °C -12.1 °C 34865.6 hPa North 6 km/h 6 km/h 76 % 0 mm
04:40 -9.8 °C -12.1 °C 34865.6 hPa Calm     76 % 0 mm
04:45 -9.7 °C -12 °C 34865.6 hPa Calm     76 % 0 mm
04:47 -9.7 °C -12 °C 34865.6 hPa Calm     76 % 0 mm
04:48 -9.6 °C -11.9 °C 34865.6 hPa Calm     76 % 0 mm
04:53 -9.5 °C -11.8 °C 34865.6 hPa North 6 km/h 6 km/h 76 % 0 mm
04:57 -9.5 °C -12.1 °C 34865.6 hPa North 9 km/h 9 km/h 74 % 0 mm
04:58 -9.6 °C -12.1 °C 34865.6 hPa North 11.9 km/h 11.9 km/h 74 % 0 mm
05:02 -9.9 °C -12.6 °C 34865.6 hPa North 9 km/h 9 km/h 73 % 0 mm
05:04 -9.9 °C -12.4 °C 34865.6 hPa North 9 km/h 9 km/h 74 % 0 mm
05:09 -10.1 °C -12.6 °C 34865.6 hPa NNE 3.1 km/h 3.1 km/h 74 % 0 mm
05:10 -10.1 °C -12.5 °C 34865.6 hPa NW 10.3 km/h 10.3 km/h 75 % 0 mm
05:15 -10 °C -12.3 °C 34865.6 hPa Calm     76 % 0 mm
05:17 -9.9 °C -12.4 °C 34865.6 hPa Calm     75 % 0 mm
05:20 -9.9 °C -12.3 °C 34852.1 hPa NNW 10.3 km/h 10.3 km/h 75 % 0 mm
05:22 -9.9 °C -12.3 °C 34865.6 hPa NNW 12.9 km/h 12.9 km/h 75 % 0 mm
05:23 -9.9 °C -12.3 °C 34865.6 hPa NNW 15 km/h 15 km/h 75 % 0 mm
05:27 -9.9 °C -12.3 °C 34852.1 hPa SSW 11.9 km/h 11.9 km/h 75 % 0 mm
05:28 -9.9 °C -12.3 °C 34865.6 hPa SSW 11.9 km/h 11.9 km/h 75 % 0 mm
05:29 -9.9 °C -12.3 °C 34865.6 hPa SW 12.9 km/h 12.9 km/h 75 % 0 mm
05:34 -9.9 °C -12.2 °C 34865.6 hPa WSW 3.1 km/h   76 % 0 mm
05:36 -9.9 °C -12.2 °C 34865.6 hPa Calm     76 % 0 mm
05:41 -9.9 °C -12.2 °C 34852.1 hPa Calm     76 % 0 mm
05:46 -9.8 °C -12.1 °C 34852.1 hPa West 7.7 km/h 7.7 km/h 77 % 0 mm
05:48 -9.8 °C -12.1 °C 34852.1 hPa West 9 km/h 9 km/h 77 % 0 mm
05:53 -10 °C -12.4 °C 34852.1 hPa West 6 km/h 6 km/h 75 % 0 mm
05:54 -10.1 °C -12.3 °C 34852.1 hPa West 3.1 km/h   76 % 0 mm
05:59 -10.1 °C -12.3 °C 34852.1 hPa West 3.1 km/h 3.1 km/h 77 % 0 mm
06:00 -10.1 °C -12.3 °C 34852.1 hPa West 3.1 km/h 3.1 km/h 77 % 0 mm
06:05 -10.1 °C -12.3 °C 34852.1 hPa West 2.6 km/h   77 % 0 mm
06:06 -10.1 °C -12.3 °C 34852.1 hPa West 3.1 km/h 3.1 km/h 77 % 0 mm
06:11 -10.1 °C -12.3 °C 34852.1 hPa Calm     77 % 0 mm
06:13 -10.1 °C -12.3 °C 34852.1 hPa West 3.1 km/h   77 % 0 mm
06:18 -10.2 °C -12.3 °C 34841.9 hPa Calm     77 % 0 mm
06:21 -10.2 °C -12.4 °C 34852.1 hPa Calm     77 % 0 mm
06:24 -10.2 °C -12.4 °C 34852.1 hPa Calm     77 % 0 mm
06:29 -10.2 °C -12.4 °C 34841.9 hPa Calm     77 % 0 mm
06:31 -10.2 °C -12.4 °C 34841.9 hPa Calm     77 % 0 mm
06:36 -10.4 °C -12.7 °C 34852.1 hPa NNE 9 km/h 9 km/h 76 % 0 mm
06:41 -10.4 °C -12.7 °C 34852.1 hPa SW 10.3 km/h 10.3 km/h 77 % 0 mm
06:43 -10.4 °C -12.6 °C 34852.1 hPa SW 10.3 km/h 10.3 km/h 78 % 0 mm
06:47 -10.4 °C -12.4 °C 34852.1 hPa SW 9 km/h 9 km/h 79 % 0 mm
06:50 -10.3 °C -12.3 °C 34852.1 hPa SW 6 km/h 6 km/h 79 % 0 mm
06:55 -10.2 °C -12.1 °C 34852.1 hPa East 6 km/h   81 % 0 mm
06:56 -10.2 °C -12.1 °C 34852.1 hPa East 6 km/h   81 % 0 mm
07:01 -10.2 °C -12.1 °C 34852.1 hPa Calm     81 % 0 mm
07:02 -10.2 °C -12.1 °C 34852.1 hPa Calm     80 % 0 mm
07:07 -10.3 °C -12.1 °C 34865.6 hPa Calm     81 % 0 mm
07:12 -10.3 °C -12.2 °C 34865.6 hPa WSW 9 km/h 9 km/h 80 % 0 mm
07:15 -10.3 °C -12.1 °C 34865.6 hPa WSW 5.1 km/h 10.3 km/h 81 % 0 mm
07:16 -10.3 °C -12.2 °C 34865.6 hPa NW 9 km/h 9 km/h 80 % 0 mm
07:20 -10.3 °C -12.3 °C 34865.6 hPa NW 6 km/h   79 % 0 mm
07:25 -10.3 °C -12.3 °C 34865.6 hPa North 6 km/h 6 km/h 79 % 0 mm
07:26 -10.3 °C -12.3 °C 34865.6 hPa North 6 km/h 6 km/h 79 % 0 mm
07:31 -10.4 °C -12.3 °C 34865.6 hPa Calm     79 % 0 mm
07:32 -10.4 °C -12.3 °C 34865.6 hPa Calm     79 % 0 mm
07:36 -10.5 °C -12.5 °C 34875.8 hPa NNE 9 km/h 9 km/h 79 % 0 mm
07:41 -10.6 °C -12.4 °C 34875.8 hPa NNE 6 km/h 6 km/h 80 % 0 mm
07:45 -10.6 °C -12.5 °C 34875.8 hPa NNE 6 km/h   80 % 0 mm
07:50 -10.6 °C -12.3 °C 34875.8 hPa Calm     81 % 0 mm
07:51 -10.6 °C -12.4 °C 34875.8 hPa Calm     81 % 0 mm
07:56 -10.6 °C -12.3 °C 34875.8 hPa Calm     81 % 0 mm
08:01 -10.5 °C -12.3 °C 34875.8 hPa Calm     81 % 0 mm
08:02 -10.5 °C -12.3 °C 34875.8 hPa Calm     81 % 0 mm
08:03 -10.5 °C -12.3 °C 34875.8 hPa NNE 5.1 km/h 5.1 km/h 81 % 0 mm
08:08 -10.6 °C -12.3 °C 34875.8 hPa NNE 9 km/h 9 km/h 81 % 0 mm
08:13 -10.6 °C -12.3 °C 34875.8 hPa NNE 6 km/h 6 km/h 81 % 0 mm
08:16 -10.6 °C -12.3 °C 34875.8 hPa North 9 km/h 9 km/h 81 % 0 mm
08:21 -10.6 °C -12.3 °C 34875.8 hPa North 3.1 km/h   82 % 0 mm
08:22 -10.6 °C -12.2 °C 34875.8 hPa Calm     82 % 0 mm
08:27 -10.5 °C -12.2 °C 34889.3 hPa Calm     82 % 0 mm
08:30 -10.6 °C -12.2 °C 34875.8 hPa Calm     82 % 0 mm
08:33 -10.5 °C -12.2 °C 34875.8 hPa Calm     82 % 0 mm
08:38 -10.5 °C -12.2 °C 34875.8 hPa NW 9 km/h 9 km/h 82 % 0 mm
08:40 -10.5 °C -12.2 °C 34875.8 hPa NW 6 km/h 6 km/h 82 % 0 mm
08:45 -10.5 °C -12.2 °C 34875.8 hPa Calm     82 % 0 mm
08:50 -10.4 °C -12.1 °C 34875.8 hPa NW 9 km/h 9 km/h 82 % 0 mm
08:52 -10.4 °C -12.2 °C 34875.8 hPa NNW 6 km/h 6 km/h 81 % 0 mm
08:57 -10.4 °C -12.2 °C 34889.3 hPa NNW 9 km/h 9 km/h 81 % 0 mm
09:02 -10.3 °C -12.1 °C 34889.3 hPa Calm     81 % 0 mm
09:05 -10.4 °C -12.1 °C 34889.3 hPa Calm     81 % 0 mm
09:08 -10.4 °C -12.2 °C 34889.3 hPa NNW 9 km/h 9 km/h 81 % 0 mm
09:13 -10.3 °C -12.1 °C 34889.3 hPa NNW 6 km/h 6 km/h 81 % 0 mm
09:18 -10.2 °C -12.1 °C 34889.3 hPa Calm     80 % 0 mm
09:19 -10.2 °C -12.1 °C 34889.3 hPa Calm     80 % 0 mm
09:23 -10.2 °C -12.1 °C 34889.3 hPa Calm     80 % 0 mm
09:24 -10.2 °C -12.1 °C 34889.3 hPa Calm     80 % 0 mm
09:29 -10.1 °C -12 °C 34889.3 hPa Calm     80 % 0 mm
09:34 -9.9 °C -11.8 °C 34889.3 hPa Calm     80 % 0 mm
09:36 -9.9 °C -11.8 °C 34899.5 hPa NNW 6 km/h 6 km/h 80 % 0 mm
09:40 -9.9 °C -11.9 °C 34899.5 hPa Calm     79 % 0 mm
09:42 -9.8 °C -11.8 °C 34899.5 hPa Calm     79 % 0 mm
09:47 -9.8 °C -11.8 °C 34899.5 hPa Calm     79 % 0 mm
09:49 -9.7 °C -11.7 °C 34899.5 hPa Calm     79 % 0 mm
09:53 -9.6 °C -11.6 °C 34899.5 hPa Calm     79 % 0 mm
09:58 -9.6 °C -11.6 °C 34899.5 hPa Calm     79 % 0 mm
10:02 -9.4 °C -11.4 °C 34909.7 hPa Calm     79 % 0 mm
10:04 -9.4 °C -11.4 °C 34909.7 hPa NNW 3.1 km/h 3.1 km/h 79 % 0 mm
10:07 -9.4 °C -11.4 °C 34909.7 hPa Calm     79 % 0 mm
10:11 -9.3 °C -11.3 °C 34909.7 hPa Calm     79 % 0 mm
10:16 -9.3 °C -11.3 °C 34909.7 hPa Calm     79 % 0 mm
10:20 -9.3 °C -11.5 °C 34909.7 hPa NNW 6 km/h 6 km/h 77 % 0 mm
10:22 -9.3 °C -11.6 °C 34909.7 hPa NNW 6 km/h 6 km/h 77 % 0 mm
10:27 -9.3 °C -11.5 °C 34923.2 hPa Calm     77 % 0 mm
10:33 -9.2 °C -11.4 °C 34923.2 hPa Calm     77 % 0 mm
10:35 -9.1 °C -11.3 °C 34923.2 hPa Calm     77 % 0 mm
10:38 -9.1 °C -11.4 °C 34923.2 hPa Calm     76 % 0 mm
10:41 -9.1 °C -11.3 °C 34923.2 hPa Calm     77 % 0 mm
10:46 -8.9 °C -11 °C 34923.2 hPa Calm     78 % 0 mm
10:48 -8.8 °C -11 °C 34923.2 hPa Calm     78 % 0 mm
10:53 -8.8 °C -10.8 °C 34923.2 hPa NNW 9 km/h 9 km/h 79 % 0 mm
10:54 -8.8 °C -10.8 °C 34923.2 hPa NNW 6 km/h 6 km/h 79 % 0 mm
10:59 -8.7 °C -10.8 °C 34923.2 hPa Calm     79 % 0 mm
11:01 -8.7 °C -10.7 °C 34933.4 hPa Calm     79 % 0 mm
11:06 -8.7 °C -10.7 °C 34923.2 hPa Calm     79 % 0 mm
11:10 -8.6 °C -10.6 °C 34933.4 hPa Calm   5.1 km/h 79 % 0 mm
11:11 -8.6 °C -10.6 °C 34923.2 hPa NNW 3.1 km/h 3.1 km/h 79 % 0 mm
11:12 -8.5 °C -10.6 °C 34923.2 hPa NNW 5.1 km/h 5.1 km/h 79 % 0 mm
11:17 -8.5 °C -10.6 °C 34923.2 hPa NNW 6 km/h 6 km/h 79 % 0 mm
11:18 -8.5 °C -10.7 °C 34923.2 hPa NNW 9 km/h 9 km/h 78 % 0 mm
11:23 -8.6 °C -10.9 °C 34923.2 hPa NNW 9 km/h 9 km/h 77 % 0 mm
11:25 -8.6 °C -10.9 °C 34923.2 hPa NNW 9 km/h 9 km/h 77 % 0 mm
11:28 -8.6 °C -10.8 °C 34923.2 hPa NNW 9 km/h 9 km/h 77 % 0 mm
11:33 -8.6 °C -10.9 °C 34923.2 hPa NW 9 km/h 9 km/h 76 % 0 mm
11:35 -8.5 °C -10.9 °C 34923.2 hPa NW 9 km/h 9 km/h 76 % 0 mm
11:40 -8.4 °C -10.9 °C 34923.2 hPa NW 6 km/h 6 km/h 75 % 0 mm
11:41 -8.4 °C -10.9 °C 34923.2 hPa NW 6 km/h 6 km/h 75 % 0 mm
11:46 -8.3 °C -10.8 °C 34923.2 hPa NW 6 km/h 6 km/h 75 % 0 mm
11:48 -8.3 °C -10.8 °C 34923.2 hPa NW 6 km/h 6 km/h 75 % 0 mm
11:53 -8.2 °C -10.7 °C 34923.2 hPa NW 3.1 km/h   75 % 0 mm
11:54 -8.2 °C -10.7 °C 34923.2 hPa NW 3.1 km/h 3.1 km/h 75 % 0 mm
11:59 -8.2 °C -10.5 °C 34923.2 hPa NW 5.1 km/h 5.1 km/h 76 % 0 mm
12:00 -8.1 °C -10.5 °C 34923.2 hPa NW 6 km/h 6 km/h 76 % 0 mm
12:06 -8.1 °C -10.3 °C 34923.2 hPa Calm     77 % 0 mm
12:11 -8 °C -10.2 °C 34923.2 hPa Calm     77 % 0 mm
12:12 -8 °C -10.2 °C 34923.2 hPa Calm     77 % 0 mm
12:16 -8 °C -10.2 °C 34923.2 hPa Calm     77 % 0 mm
12:22 -7.9 °C -10.3 °C 34909.7 hPa NW 3.1 km/h 3.1 km/h 76 % 0 mm
12:23 -7.9 °C -10.3 °C 34909.7 hPa NW 3.1 km/h   76 % 0 mm
12:27 -7.9 °C -10.4 °C 34909.7 hPa NW 3.1 km/h   75 % 0 mm
12:32 -7.9 °C -10.5 °C 34909.7 hPa Calm     74 % 0 mm
12:34 -7.8 °C -10.4 °C 34909.7 hPa Calm     74 % 0 mm
12:39 -7.7 °C -10.4 °C 34909.7 hPa NW 6 km/h 6 km/h 74 % 0 mm
12:41 -7.7 °C -10.4 °C 34899.5 hPa NW 3.1 km/h 3.1 km/h 73 % 0 mm
12:46 -7.7 °C -10.4 °C 34899.5 hPa Calm     73 % 0 mm
12:52 -7.7 °C -10.5 °C 34899.5 hPa NW 6 km/h 6 km/h 72 % 0 mm
12:54 -7.7 °C -10.5 °C 34899.5 hPa NW 7.7 km/h 7.7 km/h 72 % 0 mm
12:59 -7.8 °C -10.7 °C 34899.5 hPa West 10.3 km/h 10.9 km/h 71 % 0 mm
13:00 -7.8 °C -10.7 °C 34889.3 hPa WSW 15.6 km/h 15.6 km/h 71 % 0 mm
13:05 -7.9 °C -10.9 °C 34889.3 hPa WSW 11.9 km/h 11.9 km/h 71 % 0 mm
13:06 -7.9 °C -10.9 °C 34889.3 hPa WSW 9 km/h 9 km/h 71 % 0 mm
13:10 -7.9 °C -10.9 °C 34875.8 hPa WSW 11.9 km/h 11.9 km/h 71 % 0 mm
13:12 -7.8 °C -10.7 °C 34875.8 hPa West 12.9 km/h 12.9 km/h 72 % 0 mm
13:17 -7.7 °C -10.7 °C 34875.8 hPa West 9 km/h 9 km/h 71 % 0 mm
13:20 -7.6 °C -10.7 °C 34875.8 hPa SW 12.9 km/h 12.9 km/h 70 % 0 mm
13:24 -7.7 °C -10.7 °C 34875.8 hPa SE 9 km/h 9 km/h 71 % 0 mm
13:26 -7.7 °C -10.7 °C 34875.8 hPa SSE 9 km/h 9 km/h 71 % 0 mm
13:30 -7.7 °C -10.6 °C 34875.8 hPa SSW 12.9 km/h 12.9 km/h 72 % 0 mm
13:35 -7.8 °C -10.3 °C 34875.8 hPa South 10.3 km/h 10.3 km/h 75 % 0 mm
13:36 -7.8 °C -10.3 °C 34875.8 hPa South 11.9 km/h 11.9 km/h 75 % 0 mm
13:41 -8.1 °C -10.6 °C 34875.8 hPa SW 15 km/h 15 km/h 75 % 0 mm
13:42 -8.1 °C -10.6 °C 34865.6 hPa SW 15 km/h 15 km/h 75 % 0 mm
13:47 -8.1 °C -10.6 °C 34865.6 hPa SW 9 km/h 9 km/h 75 % 0 mm
13:51 -8.1 °C -10.6 °C 34865.6 hPa SW 11.9 km/h 11.9 km/h 75 % 0 mm
13:52 -8.1 °C -10.6 °C 34865.6 hPa SW 11.9 km/h 11.9 km/h 75 % 0 mm
14:02 -8 °C -10.6 °C 34852.1 hPa SW 15 km/h 15 km/h 74 % 0 mm
14:06 -8 °C -10.6 °C 34852.1 hPa WSW 17.9 km/h 17.9 km/h 74 % 0 mm
14:08 -8.1 °C -10.8 °C 34852.1 hPa WSW 17.9 km/h 17.9 km/h 73 % 0 mm
14:13 -8.1 °C -10.9 °C 34852.1 hPa WSW 17.9 km/h 17.9 km/h 72 % 0 mm
14:14 -8.1 °C -11.1 °C 34852.1 hPa WSW 15 km/h 15 km/h 71 % 0 mm
14:19 -8 °C -10.9 °C 34852.1 hPa WSW 15 km/h 15 km/h 72 % 0 mm
14:20 -8 °C -10.9 °C 34852.1 hPa WSW 12.9 km/h 15.6 km/h 72 % 0 mm
14:22 -7.9 °C -10.8 °C 34841.9 hPa SW 20.9 km/h 20.9 km/h 72 % 0 mm
14:25 -7.9 °C -10.6 °C 34841.9 hPa SW 20.9 km/h 20.9 km/h 73 % 0 mm
14:29 -7.9 °C -10.4 °C 34841.9 hPa SW 17.9 km/h 17.9 km/h 75 % 0 mm
14:30 -7.9 °C -10.6 °C 34841.9 hPa SW 17.9 km/h 17.9 km/h 74 % 0 mm
14:35 -8 °C -10.6 °C 34841.9 hPa WSW 18.2 km/h 18.2 km/h 74 % 0 mm
14:38 -8 °C -10.6 °C 34841.9 hPa SW 17.9 km/h 17.9 km/h 74 % 0 mm
14:43 -8.1 °C -10.4 °C 34831.8 hPa SW 20.9 km/h 20.9 km/h 76 % 0 mm
14:48 -8.2 °C -10.7 °C 34831.8 hPa WSW 20.9 km/h 20.9 km/h 75 % 0 mm
14:50 -8.2 °C -10.6 °C 34831.8 hPa WSW 20.9 km/h 20.9 km/h 76 % 0 mm
14:55 -8.2 °C -10.6 °C 34831.8 hPa WSW 23.8 km/h 23.8 km/h 76 % 0 mm
14:56 -8.2 °C -10.5 °C 34831.8 hPa SW 20.9 km/h 20.9 km/h 77 % 0 mm
15:01 -8.3 °C -10.5 °C 34831.8 hPa SW 20.9 km/h 20.9 km/h 77 % 0 mm
15:02 -8.3 °C -10.4 °C 34831.8 hPa SW 20.9 km/h 20.9 km/h 78 % 0 mm
15:03 -8.2 °C -10.4 °C 34831.8 hPa SW 15 km/h 15 km/h 78 % 0 mm
15:07 -8.2 °C -10.2 °C 34831.8 hPa SW 9 km/h 9 km/h 79 % 0 mm
15:09 -8.2 °C -10.1 °C 34831.8 hPa SW 9 km/h 9 km/h 80 % 0 mm
15:14 -8.1 °C -10 °C 34831.8 hPa SW 12.9 km/h 12.9 km/h 80 % 0 mm
15:19 -8.1 °C -10 °C 34831.8 hPa SW 15.6 km/h 15.6 km/h 80 % 0 mm
15:24 -8.1 °C -10.1 °C 34831.8 hPa SW 15 km/h 15 km/h 80 % 0 mm
15:25 -8.1 °C -10.1 °C 34831.8 hPa SW 11.9 km/h 11.9 km/h 80 % 0 mm
15:30 -8.1 °C -9.9 °C 34831.8 hPa SW 15 km/h 15 km/h 81 % 0 mm
15:35 -8.1 °C -9.9 °C 34831.8 hPa SW 11.9 km/h 11.9 km/h 81 % 0 mm
15:36 -8.1 °C -9.9 °C 34831.8 hPa SW 11.9 km/h 11.9 km/h 81 % 0 mm
15:39 -8.1 °C -9.9 °C 34818.2 hPa SW 15 km/h 15 km/h 81 % 0 mm
15:43 -8.2 °C -9.9 °C 34818.2 hPa SW 12.9 km/h 12.9 km/h 81 % 0 mm
15:47 -8.2 °C -9.9 °C 34818.2 hPa SW 10.3 km/h 10.3 km/h 81 % 0 mm
15:50 -8.2 °C -9.9 °C 34818.2 hPa SW 10.3 km/h 10.3 km/h 82 % 0 mm
15:55 -8.1 °C -9.8 °C 34818.2 hPa SW 6 km/h 6 km/h 82 % 0 mm
15:56 -8.2 °C -9.9 °C 34818.2 hPa SW 9 km/h 9 km/h 82 % 0 mm
16:01 -8.2 °C -9.8 °C 34818.2 hPa SW 3.1 km/h 3.1 km/h 83 % 0 mm
16:06 -8.2 °C -9.8 °C 34818.2 hPa SW 9 km/h 9 km/h 83 % 0 mm
16:08 -8.2 °C -9.9 °C 34818.2 hPa SW 9 km/h 9 km/h 82 % 0 mm
16:13 -8.3 °C -9.9 °C 34818.2 hPa SW 6 km/h 6 km/h 83 % 0 mm
16:16 -8.3 °C -9.9 °C 34818.2 hPa SW 6 km/h 6 km/h 83 % 0 mm
16:20 -8.2 °C -9.8 °C 34818.2 hPa SW 9 km/h 9 km/h 83 % 0 mm
16:24 -8.4 °C -9.9 °C 34818.2 hPa South 10.3 km/h 10.3 km/h 83 % 0 mm
16:25 -8.4 °C -10.1 °C 34818.2 hPa SE 9 km/h 9 km/h 83 % 0 mm
16:30 -8.6 °C -10.2 °C 34818.2 hPa SE 9 km/h 9 km/h 83 % 0 mm
16:32 -8.7 °C -10.2 °C 34818.2 hPa SE 9 km/h 9 km/h 84 % 0 mm
16:37 -8.5 °C -10.1 °C 34818.2 hPa SE 3.1 km/h 3.1 km/h 84 % 0 mm
16:38 -8.5 °C -10.1 °C 34818.2 hPa SE 3.1 km/h 3.1 km/h 84 % 0 mm
16:43 -8.4 °C -9.9 °C 34808.1 hPa SE 6 km/h 6 km/h 84 % 0 mm
16:47 -8.4 °C -9.9 °C 34818.2 hPa SE 9 km/h 9 km/h 84 % 0 mm
16:49 -8.3 °C -9.9 °C 34818.2 hPa SE 6 km/h 6 km/h 83 % 0 mm
16:51 -8.3 °C -9.9 °C 34818.2 hPa SE 6 km/h 6 km/h 83 % 0 mm
16:56 -8.2 °C -9.8 °C 34818.2 hPa SE 9 km/h 9 km/h 83 % 0 mm
16:58 -8.2 °C -9.8 °C 34818.2 hPa SE 9 km/h 9 km/h 83 % 0 mm
17:00 -8.2 °C -9.9 °C 34808.1 hPa SE 6 km/h 6 km/h 82 % 0 mm
17:05 -8.3 °C -10.1 °C 34808.1 hPa ESE 9 km/h 9 km/h 82 % 0 mm
17:06 -8.4 °C -10.1 °C 34808.1 hPa ESE 6 km/h 6 km/h 82 % 0 mm
17:10 -8.5 °C -10.1 °C 34808.1 hPa ESE 9 km/h 9 km/h 83 % 0 mm
17:12 -8.5 °C -10.1 °C 34808.1 hPa East 9 km/h 9 km/h 83 % 0 mm
17:16 -8.7 °C -10.2 °C 34808.1 hPa East 11.9 km/h 11.9 km/h 84 % 0 mm
17:21 -8.7 °C -10.1 °C 34808.1 hPa East 11.9 km/h 11.9 km/h 85 % 0 mm
17:24 -8.8 °C -10.2 °C 34808.1 hPa East 11.9 km/h 11.9 km/h 85 % 0 mm
17:27 -8.8 °C -10.1 °C 34808.1 hPa East 9 km/h 9 km/h 86 % 0 mm
17:30 -8.8 °C -10.1 °C 34808.1 hPa East 6 km/h 6 km/h 86 % 0 mm
17:32 -8.8 °C -10.2 °C 34808.1 hPa East 3.1 km/h   86 % 0 mm
17:37 -8.8 °C -10.1 °C 34808.1 hPa Calm     87 % 0 mm
17:38 -8.8 °C -10.1 °C 34808.1 hPa Calm     87 % 0 mm
17:43 -8.9 °C -10.1 °C 34808.1 hPa East 6 km/h 6 km/h 87 % 0 mm
17:45 -8.9 °C -10.1 °C 34808.1 hPa East 9 km/h 9 km/h 87 % 0 mm
17:48 -8.9 °C -10.1 °C 34808.1 hPa East 9 km/h 9 km/h 87 % 0 mm
17:53 -9 °C -10.2 °C 34818.2 hPa ENE 10.3 km/h 10.3 km/h 87 % 0 mm
17:58 -9 °C -10.1 °C 34808.1 hPa ENE 9 km/h 9 km/h 88 % 0 mm
18:02 -9 °C -10.1 °C 34808.1 hPa East 11.9 km/h 11.9 km/h 88 % 0 mm
18:05 -9.1 °C -10.2 °C 34808.1 hPa ENE 7.7 km/h 12.9 km/h 88 % 0 mm
18:08 -9.1 °C -10.2 °C 34808.1 hPa ENE 9 km/h 9 km/h 88 % 0 mm
18:10 -9.1 °C -10.2 °C 34818.2 hPa ENE 9 km/h 9 km/h 88 % 0 mm
18:14 -9.1 °C -10.1 °C 34808.1 hPa NE 10.3 km/h 10.3 km/h 89 % 0 mm
18:15 -9.1 °C -10.2 °C 34808.1 hPa NE 9 km/h 9 km/h 88 % 0 mm
18:20 -9.1 °C -10.2 °C 34808.1 hPa NE 7.7 km/h 7.7 km/h 89 % 0 mm
18:22 -9.1 °C -10.2 °C 34808.1 hPa NE 9 km/h 9 km/h 89 % 0 mm
18:24 -9.1 °C -10.2 °C 34808.1 hPa NE 9 km/h 9 km/h 89 % 0 mm
18:29 -9.1 °C -10.2 °C 34808.1 hPa NE 9 km/h 9 km/h 89 % 0 mm
18:34 -9.1 °C -10.2 °C 34808.1 hPa ENE 9 km/h 9 km/h 89 % 0 mm
18:35 -9.1 °C -10.2 °C 34808.1 hPa ENE 9 km/h 9 km/h 89 % 0 mm
18:38 -9.1 °C -10.2 °C 34808.1 hPa East 11.9 km/h 11.9 km/h 89 % 0 mm
18:40 -9.1 °C -10.2 °C 34808.1 hPa East 6 km/h 6 km/h 89 % 0 mm
18:46 -9.2 °C -10.2 °C 34808.1 hPa East 9 km/h 9 km/h 89 % 0 mm
18:49 -9.2 °C -10.2 °C 34808.1 hPa ENE 11.9 km/h 11.9 km/h 89 % 0 mm
18:53 -9.2 °C -10.2 °C 34808.1 hPa NE 10.3 km/h 10.3 km/h 89 % 0 mm
18:54 -9.2 °C -10.2 °C 34808.1 hPa NE 10.3 km/h 10.3 km/h 89 % 0 mm
18:59 -9.2 °C -10.2 °C 34808.1 hPa Calm     89 % 0 mm
19:00 -9.2 °C -10.2 °C 34808.1 hPa Calm     89 % 0 mm
19:05 -9.2 °C -10.2 °C 34808.1 hPa Calm     89 % 0 mm
19:06 -9.2 °C -10.2 °C 34808.1 hPa Calm     89 % 0 mm
19:11 -9.2 °C -10.1 °C 34808.1 hPa Calm     90 % 0 mm
19:15 -9.2 °C -10.1 °C 34808.1 hPa Calm     90 % 0 mm
19:19 -9.2 °C -10.1 °C 34808.1 hPa Calm     90 % 0 mm
19:24 -9.2 °C -10.1 °C 34808.1 hPa Calm     90 % 0 mm
19:29 -9.2 °C -10.1 °C 34808.1 hPa Calm     90 % 0 mm
19:30 -9.2 °C -10.1 °C 34808.1 hPa Calm     90 % 0 mm
19:32 -9.2 °C -10.1 °C 34808.1 hPa Calm     90 % 0 mm
19:35 -9.2 °C -10.1 °C 34808.1 hPa Calm     90 % 0 mm
19:39 -9.2 °C -10.1 °C 34808.1 hPa Calm     90 % 0 mm
19:44 -9.3 °C -10.2 °C 34808.1 hPa Calm     90 % 0 mm
19:46 -9.3 °C -10.2 °C 34808.1 hPa Calm     90 % 0 mm
19:47 -9.3 °C -10.2 °C 34808.1 hPa Calm     90 % 0 mm
19:55 -9.4 °C -10.3 °C 34808.1 hPa Calm     90 % 0 mm
19:57 -9.4 °C -10.3 °C 34808.1 hPa Calm     90 % 0 mm
20:02 -9.5 °C -10.4 °C 34808.1 hPa NE 6 km/h 6 km/h 90 % 0 mm
20:03 -9.5 °C -10.4 °C 34808.1 hPa NE 6 km/h 6 km/h 90 % 0 mm
20:08 -9.4 °C -10.3 °C 34818.2 hPa Calm     90 % 0 mm
20:10 -9.4 °C -10.3 °C 34808.1 hPa Calm     90 % 0 mm
20:19 -9.4 °C -10.3 °C 34818.2 hPa Calm     90 % 0 mm
20:24 -9.5 °C -10.4 °C 34818.2 hPa NNE 10.3 km/h 10.3 km/h 89 % 0 mm
20:29 -9.6 °C -10.6 °C 34818.2 hPa North 12.9 km/h 12.9 km/h 89 % 0 mm
20:30 -9.6 °C -10.6 °C 34818.2 hPa North 12.9 km/h 12.9 km/h 89 % 0 mm
20:35 -9.8 °C -10.8 °C 34818.2 hPa North 12.9 km/h 12.9 km/h 89 % 0 mm
20:38 -9.8 °C -10.8 °C 34818.2 hPa North 17.9 km/h 17.9 km/h 89 % 0 mm
20:41 -9.9 °C -10.9 °C 34818.2 hPa North 15 km/h 15 km/h 89 % 0 mm
20:43 -9.9 °C -10.9 °C 34818.2 hPa North 11.9 km/h 11.9 km/h 89 % 0 mm
20:47 -9.9 °C -10.9 °C 34818.2 hPa North 11.9 km/h 11.9 km/h 89 % 0 mm
20:49 -9.9 °C -10.9 °C 34818.2 hPa NNW 9 km/h 9 km/h 89 % 0 mm
20:52 -9.9 °C -10.9 °C 34818.2 hPa NNW 6 km/h 6 km/h 89 % 0 mm
20:55 -9.8 °C -10.8 °C 34818.2 hPa NNW 9 km/h 9 km/h 89 % 0 mm
20:58 -9.8 °C -10.8 °C 34818.2 hPa NNW 9 km/h 9 km/h 89 % 0 mm
21:01 -9.7 °C -10.7 °C 34818.2 hPa North 9 km/h 9.3 km/h 89 % 0 mm
21:06 -9.7 °C -10.7 °C 34818.2 hPa North 9 km/h 9 km/h 89 % 0 mm
21:11 -9.6 °C -10.5 °C 34818.2 hPa Calm     89 % 0 mm
21:16 -9.4 °C -10.5 °C 34818.2 hPa Calm     88 % 0 mm
21:21 -9.4 °C -10.6 °C 34818.2 hPa North 9 km/h 9.8 km/h 87 % 0 mm
21:26 -9.3 °C -10.5 °C 34818.2 hPa NNW 9 km/h 9 km/h 87 % 0 mm
21:31 -9.2 °C -10.4 °C 34818.2 hPa Calm     87 % 0 mm
21:36 -9.1 °C -10.4 °C 34818.2 hPa Calm     85 % 0 mm
21:42 -9 °C -10.6 °C 34818.2 hPa Calm     83 % 0 mm
21:47 -9.1 °C -10.7 °C 34818.2 hPa NNW 12.9 km/h 12.9 km/h 82 % 0 mm
21:52 -9.1 °C -10.9 °C 34818.2 hPa NNW 11.9 km/h 11.9 km/h 81 % 0 mm
21:53 -9.1 °C -10.9 °C 34818.2 hPa NNW 9 km/h 9 km/h 81 % 0 mm
21:57 -9.1 °C -10.9 °C 34818.2 hPa NNW 9 km/h 9 km/h 81 % 0 mm
22:01 -9.1 °C -11.1 °C 34818.2 hPa NNW 10.3 km/h 10.3 km/h 80 % 0 mm
22:02 -9.2 °C -11.1 °C 34818.2 hPa NW 10.3 km/h 10.3 km/h 80 % 0 mm
22:06 -9.2 °C -11.2 °C 34818.2 hPa NW 9 km/h 9 km/h 79 % 0 mm
22:10 -9.3 °C -11.3 °C 34818.2 hPa NW 9 km/h 9 km/h 79 % 0 mm
22:11 -9.3 °C -11.4 °C 34818.2 hPa NW 9 km/h 9 km/h 78 % 0 mm
22:14 -9.3 °C -11.5 °C 34818.2 hPa NW 9 km/h 9 km/h 78 % 0 mm
22:19 -9.3 °C -11.6 °C 34818.2 hPa NW 9 km/h 9 km/h 77 % 0 mm
22:21 -9.3 °C -11.7 °C 34818.2 hPa NW 9 km/h 9 km/h 76 % 0 mm
22:26 -9.3 °C -11.6 °C 34818.2 hPa NW 6 km/h 6 km/h 76 % 0 mm
22:31 -9.3 °C -11.8 °C 34818.2 hPa Calm     75 % 0 mm
22:33 -9.3 °C -11.7 °C 34818.2 hPa NW 9 km/h 9 km/h 75 % 0 mm
22:36 -9.3 °C -11.8 °C 34818.2 hPa NW 6 km/h 6 km/h 75 % 0 mm
22:41 -9.4 °C -12 °C 34818.2 hPa NW 11.9 km/h 11.9 km/h 74 % 0 mm
22:42 -9.4 °C -12 °C 34818.2 hPa NW 11.9 km/h 11.9 km/h 74 % 0 mm
22:47 -9.3 °C -12.1 °C 34818.2 hPa NNW 12.9 km/h 12.9 km/h 72 % 0 mm
22:54 -9.2 °C -12.3 °C 34818.2 hPa North 10.3 km/h 10.3 km/h 70 % 0 mm
22:59 -9.2 °C -12.2 °C 34818.2 hPa North 12.9 km/h 12.9 km/h 70 % 0 mm
23:01 -9.2 °C -12.3 °C 34818.2 hPa North 17.9 km/h 17.9 km/h 69 % 0 mm
23:06 -9.2 °C -12.3 °C 34818.2 hPa North 17.9 km/h 17.9 km/h 69 % 0 mm
23:08 -9.2 °C -12.3 °C 34818.2 hPa North 15 km/h 15 km/h 69 % 0 mm
23:13 -9.2 °C -12.3 °C 34818.2 hPa North 15 km/h 15 km/h 69 % 0 mm
23:18 -9.2 °C -12.3 °C 34818.2 hPa North 17.9 km/h 17.9 km/h 69 % 0 mm
23:20 -9.1 °C -12.3 °C 34818.2 hPa North 17.9 km/h 17.9 km/h 69 % 0 mm
23:23 -9.1 °C -12.2 °C 34818.2 hPa North 17.9 km/h 17.9 km/h 69 % 0 mm
23:29 -9 °C -12.3 °C 34818.2 hPa North 18.2 km/h 18.2 km/h 68 % 0 mm
23:32 -8.9 °C -12.2 °C 34818.2 hPa North 18.2 km/h 18.2 km/h 68 % 0 mm
23:36 -8.9 °C -12.3 °C 34831.8 hPa North 15 km/h 15 km/h 67 % 0 mm
23:37 -8.9 °C -12.3 °C 34818.2 hPa NNW 12.9 km/h 12.9 km/h 67 % 0 mm
23:42 -8.8 °C -12.3 °C 34818.2 hPa North 20.9 km/h 20.9 km/h 67 % 0 mm
23:46 -8.8 °C -12.3 °C 34818.2 hPa NNW 15.6 km/h 15.6 km/h 67 % 0 mm
23:48 -8.9 °C -12.3 °C 34818.2 hPa NNW 11.9 km/h 11.9 km/h 67 % 0 mm
23:53 -8.8 °C -12.3 °C 34818.2 hPa NNW 9 km/h 9 km/h 67 % 0 mm
23:57 -8.9 °C -12.3 °C 34831.8 hPa North 9 km/h 9 km/h 67 % 0 mm
23:58 -8.9 °C -12.3 °C 34831.8 hPa North 6 km/h 6 km/h 67 % 0 mm
Puerto Banus, Marbella
Elogios de Weather Underground - 2.75 mb

Guión original por  Jim McMurry - jmcmurry@mwt.net Adaptado para la plantilla por  Wim van der Kuil - Leuven-Template.eu

Usted encontrará nuestra información del tiempo también en:

Weather Underground

Iberian Peninsula Weather Network